MDAB

Arroyo Barril International Airport

Airport
ICAO code
MDAB
IATA Code
EPS
Summary
ICAO Region
CARSAM
ICAO Territory
Location

Los Robalos, Samaná Province

Serving
Samaná
Elevation
57 ft
Coordinates
19° 12' 6" N , 69° 25' 57" W
KCC
Metar
MDAB 201900Z 09004KT 9999 BKN018 SCT300 28/24 Q1015

Arroyo Barril Airport is located in the Samaná province of the Dominican Republic. The airport is used for domestic flights.

Climatology

Tropical rainforest climate (Köppen climate classification Af)

Runways

Designator Length Width Surface Rops
11/29 1167 25 ASP No/No

Airport map

Aerial View

SKYbrary Partners:

Safety knowledge contributed by: